"Pseudo-MPEC" for P10OHy6

Created 2019 Jun 19 16:07:34 UT using Find_Orb

Click here for an explanation of pseudo-MPECs

 
 Astrometry: 
     P10OHy6  C2019 06 03LJXY[f*;[B4E#qW@*h'tk4Zn0^oJEut$T/j.9D#ugl@DcQdG?EAdF51
     P10OHy6  C2019 06 03ZU2D9(n^#h2x,t7+RfrD`a8Z.1Z)P:^8QD,it,hLlbdwn*I8k?y]F51
     P10OHy6  C2019 06 03aH4jRN(o@YmLIoU]M!kynuHa@h:#BVFAstrometryX^)'$bu*ej^F51
     P10OHy6  C2019 06 04.37631 20 24 55.17 -23 15 28.2    ~649M 20.9 GVNEOCPI52
     P10OHy6  C2019 06 04.37673 20 24 55.02 -23 15 29.7    ~649M 20.6 GVNEOCPI52
     P10OHy6  C2019 06 04.37715 20 24 54.84 -23 15 30.2    ~649M 20.7 GVNEOCPI52
     P10OHy6  C2019 06 04.37756 20 24 54.68 -23 15 31.3    ~649M 20.6 GVNEOCPI52
     P10OHy6 KC2019 06 04t(1vredacted;(VuPRwkL?,*;b0qbB/kJg.EKsi0nKAjSx?^*pOV474
     P10OHy6 KC2019 06 04j5`+wJW`mf+q.9pY3_i'1eK=DV!:`1*urjMvG3Cgr:u20/yJRZ5q474
     P10OHy6 KC2019 06 04+-h)diCJ!(yMrL#s9G`2a6DLECvQ#eIbr7k\[h`6J`=B2@;LgV8)474
     P10OHy6 KC2019 06 04l\UkY+B6pERB]wYre?.jY%2FE(rg80p*F%uY0=oZc!x[L=U4-49t474
     P10OHy6 GC2019 06 05Z^V,%npuxpMOdDxx-yUaQclickjgoE!V4:PHS,UXT%.,PbY%'$X%J04
     P10OHy6 GC2019 06 05e1Z'chere%n2Jph8dsaqYpP4u8@%T+'X=aCNuJk?W%iF=SsXKRNUJ04
     P10OHy6 GC2019 06 05@$m;)Goh)'+jJ4eO%@H]Ek]D0uIIX]M%R1MGyVN+Rse[x_]5*NLGJ04
     P10OHy6  C2019 06 05.37695 20 18 15.20 -23 58 20.1    ~659b 20.4 GVNEOCPI52
     P10OHy6  C2019 06 05.37820 20 18 14.70 -23 58 23.2    ~659b 20.5 GVNEOCPI52
     P10OHy6  C2019 06 05.37945 20 18 14.19 -23 58 26.4    ~659b 20.5 GVNEOCPI52
     P10OHy6  C2019 06 05.38070 20 18 13.67 -23 58 29.7    ~659b 20.6 GVNEOCPI52
     P10OHy6 KC2019 06 05M\BvyEU6M4h^ai]qqBq#;79nvv][K0(xF$Ny#]5PrWhYL+KH)mB2474
     P10OHy6 KC2019 06 05jIKiYfor-AZepYhSIsKZa_[gj`6Fi.:1t*PC/sWpo7[ep#svDT^)474
     P10OHy6 KC2019 06 05i%M);ss#g^wKhAZbxPW5ev_in3e8g#u0)9xv2=qSi_tI!LT2;sbU474
     P10OHy6 KC2019 06 05bWh(IU_E?h!XAQEwopP^/%aeQoQGi:+qexplanationj3tyss;uP474
     P10OHy6  C2019 06 06.38068 20 11 45.07 -24 38 17.7    ~669b 19.9 GVNEOCPI52
     P10OHy6  C2019 06 06.38144 20 11 44.74 -24 38 19.3    ~669b 19.2 GVNEOCPI52
     P10OHy6  C2019 06 06.38220 20 11 44.45 -24 38 20.9    ~669b 19.3 GVNEOCPI52
     P10OHy6  C2019 06 07.35309 20 05 38.23 -25 14 14.2    ~678q 20.2 GVNEOCPI52
     P10OHy6  C2019 06 07.35386 20 05 37.91 -25 14 15.6    ~678q 21.0 GVNEOCPI52
     P10OHy6  C2019 06 07.35538 20 05 37.43 -25 14 17.3    ~678q 19.2 GVNEOCPI52

Station data:
(474) Mount John Observatory, Lake Tekapo  (S43.987388 E170.464960)  New
   Zealand.  Observers A. C. Gilmore, P. M. Kilmartin. Measurer P. M.
   Kilmartin. 1.0-m f/7.7 reflector + CCD.
(F51) Pan-STARRS 1, Haleakala  (N20.707235 W156.255910)  US/Hawaii.
   Observers N. Primak, A. Schultz, S. Watters, J. Thiel, T. Goggia. Measurer
   PS1 Science Consortium. 1.8-m Ritchey-Chrétien + CCD.
(I52) Steward Observatory, Mt. Lemmon Station  (N32.442547 W110.788920)
   US/Arizona.  Observers T. A. Pruyne, B. M. Africano, E. J. Christensen, G.
   A. Farneth, D. C. Fuls, A. R. Gibbs, A. D. Grauer, H. Groeller, J. A.
   Johnson, R. A. Kowalski, S. M. Larson, G. J. Leonard, R. L. Seaman, F. C.
   Shelly. 1.0-m reflector + CCD.
(J04) ESA Optical Ground Station, Tenerife  (N28.300924 W16.511830)  Canary
   Islands (Spain).  Observer D. Abreu. Measurers M. Micheli, D. Koschny, E.
   Schwab, M. Busch, A. Knöfel. 1.0-m f/4.4 reflector + CCD.

Orbital elements:  P10OHy6
   Perihelion 2019 Mar 31.857883 +/- 0.0436 TT = 20:35:21 (JD 2458574.357883)
Epoch 2019 Jun  7.0 TT = JDT 2458641.5   Earth MOID: 0.0068   Ve: 0.0290
M  34.07708868 +/- 0.15             Ma: 0.0191                AutoNEOCP
n   0.50753669 +/- 0.00203          Peri.   98.08337 +/- 0.047
a   1.55653090 +/- 0.00415          Node    72.20627 +/- 0.025
e   0.5206770 +/- 0.00182           Incl.    4.34546 +/- 0.016
P   1.94/709.29d           H 22.5   G  0.15   U  8.6  
q 0.74608097 +/- 0.000854    Q 2.36698083 +/- 0.00911
From 28 observations 2019 June 3-7; mean residual 0".31
Residuals in arcseconds: 
190603 F51  .11-  .02-    190604 474  .06-  .13+    190605 474  .16+  .00     
190603 F51  .17-  .09+    190605 J04  .01+  .07+    190605 474  .39-  .14-    
190603 F51  .07-  .09+    190605 J04  .18-  .22-    190606 I52  .01+  .02+    
190604 I52  .21-  .03+    190605 J04  .09+  .07-    190606 I52  .33-  .20+    
190604 I52  .17+  .33-    190605 I52  .26-  .16-    190606 I52  .13-  .38+    
190604 I52  .14+  .31+    190605 I52  .05-  .11-    190607 I52  .26-  .74-    
190604 I52  .33+  .32+    190605 I52  .03+  .15-    190607 I52  .54-  .45-    
190604 474  .13+  .26+    190605 I52  .04-  .29-    190607 I52  .97+  1.2+    
190604 474  .34+  .52-    190605 474  .23+  .22+    
190604 474  .27+  .09-    190605 474  .03+  .01-    

Ephemerides (geocentric):
Date (UTC) HH   RA              Dec         delta   r     elong  mag " sig PA
---- -- -- --  -------------   -----------  ------ ------ -----  --- ---- ---
2019 06 19 16  19 02 48.006   -29 46 28.14  .24864 1.2556 162.7 20.7 1.60   7
2019 06 19 17  19 02 37.891   -29 46 57.47  .24891 1.2560 162.7 20.7 1.61   7
2019 06 19 18  19 02 27.792   -29 47 26.68  .24919 1.2563 162.8 20.7 1.61   7
2019 06 19 19  19 02 17.710   -29 47 55.76  .24947 1.2567 162.9 20.7 1.62   6
2019 06 19 20  19 02 07.645   -29 48 24.71  .24975 1.2570 162.9 20.7 1.63   6
2019 06 19 21  19 01 57.597   -29 48 53.53  .25003 1.2574 163.0 20.7 1.63   6
2019 06 19 22  19 01 47.565   -29 49 22.22  .25031 1.2577 163.1 20.7 1.64   6
2019 06 19 23  19 01 37.549   -29 49 50.78  .25058 1.2580 163.1 20.7 1.65   6
2019 06 20 00  19 01 27.551   -29 50 19.21  .25086 1.2584 163.2 20.7 1.66   6
2019 06 20 01  19 01 17.568   -29 50 47.52  .25114 1.2587 163.3 20.7 1.66   6
2019 06 20 02  19 01 07.603   -29 51 15.70  .25142 1.2591 163.4 20.7 1.67   6
2019 06 20 03  19 00 57.653   -29 51 43.75  .25170 1.2594 163.4 20.7 1.68   6
2019 06 20 04  19 00 47.721   -29 52 11.68  .25198 1.2598 163.5 20.7 1.68   6
2019 06 20 05  19 00 37.804   -29 52 39.48  .25226 1.2601 163.6 20.7 1.69   6
2019 06 20 06  19 00 27.905   -29 53 07.15  .25254 1.2604 163.6 20.7 1.70   6
2019 06 20 07  19 00 18.022   -29 53 34.70  .25283 1.2608 163.7 20.7 1.71   6
2019 06 20 08  19 00 08.155   -29 54 02.13  .25311 1.2611 163.8 20.7 1.71   6
2019 06 20 09  18 59 58.304   -29 54 29.43  .25339 1.2615 163.8 20.8 1.72   6
2019 06 20 10  18 59 48.471   -29 54 56.60  .25367 1.2618 163.9 20.8 1.73   6
2019 06 20 11  18 59 38.653   -29 55 23.65  .25395 1.2622 164.0 20.8 1.74   5
2019 06 20 12  18 59 28.852   -29 55 50.58  .25424 1.2625 164.0 20.8 1.74   5
2019 06 20 13  18 59 19.067   -29 56 17.39  .25452 1.2629 164.1 20.8 1.75   5
2019 06 20 14  18 59 09.299   -29 56 44.07  .25480 1.2632 164.2 20.8 1.76   5
2019 06 20 15  18 58 59.547   -29 57 10.63  .25508 1.2635 164.2 20.8 1.77   5
2019 06 20 16  18 58 49.812   -29 57 37.07  .25537 1.2639 164.3 20.8 1.77   5
2019 06 20 17  18 58 40.093   -29 58 03.39  .25565 1.2642 164.3 20.8 1.78   5
2019 06 20 18  18 58 30.390   -29 58 29.59  .25594 1.2646 164.4 20.8 1.79   5
2019 06 20 19  18 58 20.703   -29 58 55.66  .25622 1.2649 164.5 20.8 1.79   5
2019 06 20 20  18 58 11.033   -29 59 21.62  .25650 1.2653 164.5 20.8 1.80   5
2019 06 20 21  18 58 01.379   -29 59 47.45  .25679 1.2656 164.6 20.8 1.81   5
2019 06 20 22  18 57 51.741   -30 00 13.17  .25707 1.2659 164.7 20.8 1.82   5
2019 06 20 23  18 57 42.120   -30 00 38.77  .25736 1.2663 164.7 20.8 1.83   5
2019 06 21 00  18 57 32.515   -30 01 04.24  .25765 1.2666 164.8 20.8 1.83   5
2019 06 21 01  18 57 22.926   -30 01 29.60  .25793 1.2670 164.9 20.8 1.84   5
2019 06 21 02  18 57 13.353   -30 01 54.84  .25822 1.2673 164.9 20.8 1.85   5
2019 06 21 03  18 57 03.797   -30 02 19.97  .25850 1.2677 165.0 20.8 1.86   5
2019 06 21 04  18 56 54.256   -30 02 44.97  .25879 1.2680 165.1 20.8 1.86   4
2019 06 21 05  18 56 44.732   -30 03 09.86  .25908 1.2683 165.1 20.8 1.87   4
2019 06 21 06  18 56 35.224   -30 03 34.63  .25936 1.2687 165.2 20.8 1.88   4
2019 06 21 07  18 56 25.733   -30 03 59.29  .25965 1.2690 165.2 20.8 1.89   4
2019 06 21 08  18 56 16.257   -30 04 23.83  .25994 1.2694 165.3 20.8 1.89   4
2019 06 21 09  18 56 06.798   -30 04 48.25  .26023 1.2697 165.4 20.8 1.90   4
2019 06 21 10  18 55 57.354   -30 05 12.56  .26052 1.2701 165.4 20.8 1.91   4
2019 06 21 11  18 55 47.927   -30 05 36.75  .26080 1.2704 165.5 20.8 1.92   4
2019 06 21 12  18 55 38.516   -30 06 00.83  .26109 1.2707 165.6 20.8 1.93   4
2019 06 21 13  18 55 29.121   -30 06 24.79  .26138 1.2711 165.6 20.8 1.93   4
2019 06 21 14  18 55 19.742   -30 06 48.64  .26167 1.2714 165.7 20.8 1.94   4
2019 06 21 15  18 55 10.379   -30 07 12.38  .26196 1.2718 165.8 20.8 1.95   4